EW5742 Weather Reports


Display with metric or nautical units.
time (UTC)temp
F
wind
direction
speed
MPH
gust
MPH
rain 1hr
in
rain 24hr
in
rain mn
in
humidity
%
barometer
mb
20260903000017 82 144 0.0 1.0 0.00 0.00 0.00 84 1016.6
20260902234516 82 154 0.0 2.0 0.00 0.00 0.00 83 1016.7
20260902233022 83 148 0.0 4.0 0.00 0.00 0.00 82 1016.6
20260902231515 83 166 0.0 7.0 0.00 0.00 0.00 81 1016.5
20260902230014 84 178 2.0 4.0 0.00 0.00 0.00 78 1016.3
20260902224509 84 214 3.0 8.0 0.00 0.00 0.00 77 1016.2
20260902223009 85 139 2.0 10.0 0.00 0.00 0.00 76 1016.2
20260902221518 86 151 2.0 7.0 0.00 0.00 0.00 75 1016.3
20260902220042 86 149 1.0 7.0 0.00 0.00 0.00 75 1016.4
20260902214544 87 163 3.0 9.0 0.00 0.00 0.00 73 1016.2
20260902213033 88 126 2.0 7.0 0.00 0.00 0.00 74 1016.3
20260902211529 89 134 2.0 8.0 0.00 0.00 0.00 73 1016.1
20260902210036 89 120 5.0 9.0 0.00 0.00 0.00 71 1015.9
20260902204526 90 208 1.0 7.0 0.00 0.00 0.00 70 1015.8
20260902203104 90 224 4.0 9.0 0.00 0.00 0.00 70 1016.0
20260902200022 90 150 4.0 9.0 0.00 0.00 0.00 67 1016.3
20260902194526 91 134 1.0 10.0 0.00 0.00 0.00 68 1016.4
20260902193015 91 181 3.0 9.0 0.00 0.00 0.00 70 1016.5
20260902191520 91 165 4.0 9.0 0.00 0.00 0.00 68 1016.6
20260902190022 91 184 5.0 11.0 0.00 0.00 0.00 69 1016.6
20260902184512 91 165 4.0 10.0 0.00 0.00 0.00 68 1016.6
20260902183008 91 136 2.0 9.0 0.00 0.00 0.00 68 1016.7
20260902181507 92 139 4.0 10.0 0.00 0.00 0.00 67 1016.9
20260902180010 93 153 5.0 8.0 0.00 0.00 0.00 65 1016.9
20260902174506 94 172 3.0 7.0 0.00 0.00 0.00 65 1016.9
20260902173034 95 93 0.0 3.0 0.00 0.00 0.00 59 1016.9
20260902171552 94 281 0.0 3.0 0.00 0.00 0.00 63 1017.0
20260902170028 94 205 0.0 3.0 0.00 0.00 0.00 61 1017.1
20260902164533 94 255 0.0 4.0 0.00 0.00 0.00 61 1017.1
20260902163028 94 138 1.0 6.0 0.00 0.00 0.00 63 1017.1
20260902161532 93 247 1.0 3.0 0.00 0.00 0.00 63 1017.3
20260902160028 93 280 0.0 4.0 0.00 0.00 0.00 63 1017.3
20260902154521 92 310 0.0 3.0 0.00 0.00 0.00 65 1017.3
20260902153016 91 294 0.0 3.0 0.00 0.00 0.00 65 1017.4
20260902151511 91 11 0.0 4.0 0.00 0.00 0.00 66 1017.4
20260902150005 90 214 0.0 2.0 0.00 0.00 0.00 64 1017.5
20260902144502 90 131 1.0 4.0 0.00 0.00 0.00 65 1017.4
20260902143106 89 111 0.0 2.0 0.00 0.00 0.00 66 1017.3
20260902141600 89 273 0.0 4.0 0.00 0.00 0.00 66 1017.3
20260902140056 87 195 0.0 4.0 0.00 0.00 0.00 67 1017.2
20260902134521 86 278 0.0 1.0 0.00 0.00 0.00 74 1017.2
20260902133018 85 1 0.0 2.0 0.00 0.00 0.00 76 1017.3
20260902131511 84 324 0.0 3.0 0.00 0.00 0.00 80 1017.5
20260902130012 83 124 0.0 2.0 0.00 0.00 0.00 82 1017.6
20260902124601 82 140 0.0 1.0 0.00 0.00 0.00 85 1017.6
20260902123104 81 309 0.0 2.0 0.00 0.00 0.00 89 1017.7
20260902121525 79 78 0.0 1.0 0.00 0.00 0.00 93 1017.7
20260902120020 77 148 0.0 0.0 0.00 0.00 0.00 95 1017.7
20260902114610 76 148 0.0 0.0 0.00 0.00 0.00 95 1017.7
20260902113048 74 148 0.0 0.0 0.00 0.00 0.00 96 1017.6
20260902111533 73 148 0.0 0.0 0.00 0.00 0.00 95 1017.7
20260902110033 72 148 0.0 0.0 0.00 0.00 0.00 95 1017.5
20260902104530 72 148 0.0 0.0 0.00 0.00 0.00 95 1017.4
20260902103028 72 148 0.0 0.0 0.00 0.00 0.00 95 1017.4
20260902101525 73 148 0.0 0.0 0.00 0.00 0.00 95 1017.4
20260902100026 73 148 0.0 0.0 0.00 0.00 0.00 95 1017.4
20260902094613 73 148 0.0 0.0 0.00 0.00 0.00 95 1017.3
20260902093109 73 148 0.0 0.0 0.00 0.00 0.00 95 1017.1
20260902091522 73 148 0.0 0.0 0.00 0.00 0.00 95 1017.2
20260902090020 73 148 0.0 0.0 0.00 0.00 0.00 94 1017.1
20260902084548 74 148 0.0 0.0 0.00 0.00 0.00 94 1017.2
20260902083047 74 148 0.0 0.0 0.00 0.00 0.00 94 1017.2
20260902081517 74 148 0.0 0.0 0.00 0.00 0.00 94 1017.1
20260902080017 74 148 0.0 0.0 0.00 0.00 0.00 94 1016.9
20260902074513 74 148 0.0 0.0 0.00 0.00 0.00 94 1016.9
20260902073019 74 148 0.0 0.0 0.00 0.00 0.00 94 1016.9
20260902071507 75 148 0.0 0.0 0.00 0.00 0.00 94 1017.0
20260902070010 75 148 0.0 0.0 0.00 0.00 0.00 94 1017.1
20260902064606 75 148 0.0 0.0 0.00 0.00 0.00 94 1017.1
20260902063058 75 148 0.0 0.0 0.00 0.00 0.00 94 1017.4
20260902061633 75 148 0.0 0.0 0.00 0.00 0.00 93 1017.4
20260902060101 75 148 0.0 0.0 0.00 0.00 0.00 93 1017.4
20260902054536 76 148 0.0 0.0 0.00 0.00 0.00 93 1017.3
20260902053024 76 148 0.0 0.0 0.00 0.00 0.00 93 1017.3
20260902051553 76 148 0.0 0.0 0.00 0.00 0.00 93 1017.4
20260902050050 76 148 0.0 0.0 0.00 0.00 0.00 92 1017.2
20260902044522 76 148 0.0 0.0 0.00 0.00 0.00 92 1017.2
20260902043020 77 148 0.0 0.0 0.00 0.00 0.00 92 1017.0
20260902041605 77 148 0.0 0.0 0.00 0.00 0.00 91 1017.0
20260902040049 77 148 0.0 0.0 0.00 0.00 0.00 91 1016.7
20260902034519 78 148 0.0 0.0 0.00 0.00 0.00 91 1016.8
20260902033018 78 148 0.0 0.0 0.00 0.00 0.00 90 1016.6
20260902031546 79 151 0.0 1.0 0.00 0.00 0.00 90 1016.6
20260902030100 79 143 0.0 2.0 0.00 0.00 0.00 89 1016.4
20260902024549 79 153 0.0 3.0 0.00 0.00 0.00 89 1016.4
20260902023051 79 159 0.0 1.0 0.00 0.00 0.00 89 1016.6
20260902021547 79 155 0.0 4.0 0.00 0.00 0.00 88 1016.5
20260902020039 79 150 0.0 2.0 0.00 0.00 0.00 88 1016.4
20260902014510 79 210 0.0 3.0 0.00 0.00 0.00 88 1016.4
20260902013008 79 12 0.0 1.0 0.00 0.00 0.00 88 1016.3
20260902011506 79 153 0.0 3.0 0.00 0.00 0.00 88 1016.3
20260902010012 79 155 0.0 3.0 0.00 0.00 0.00 88 1016.3
20260902004507 79 141 0.0 3.0 0.00 0.00 0.00 87 1016.3
20260902003003 79 136 0.0 2.0 0.00 0.00 0.00 87 1016.3
20260902001507 80 161 0.0 2.0 0.00 0.00 0.00 87 1016.5
20260902001502 80 160 0.0 2.0 0.00 0.00 0.00 87 1016.5